^^
Station Historical Data
Daily Summary for July 2, 2021 Units:  English    Metric   Both
Daily Weekly Monthly Yearly
  High: Low: Average:
Temperature: 71.4 °F 61.6 °F 65.7 °F
Dew Point: 58.7 °F 54.3 °F 56.1 °F
Humidity: 83% 59% 71%
Wind Speed: 7mph 1mph 4.1mph
Wind Gust: 14mph - -
Wind- - SE
Pressure: 30.01 in 29.94 in -
Precipitation: 0.00 in    
 
 
Tabular Data for July 2, 2021
Time Temperature Dew Point Pressure Wind Wind Speed Wind Gust Humidity Rainfall Rate (Hourly) solar
00:00 63.7 °F 55.3 °F 29.98 in NNE 5 mph 7 mph 74% 0.00 in 0 W/m2
00:05 63.7 °F 55.6 °F 29.97 in ENE 4 mph 7 mph 75% 0.00 in 0 W/m2
00:10 63.6 °F 54.8 °F 29.97 in NW 5 mph 5 mph 73% 0.00 in 0 W/m2
00:15 63.6 °F 55.2 °F 29.97 in NNE 5 mph 9 mph 74% 0.00 in 0 W/m2
00:20 63.7 °F 55.3 °F 29.97 in NNW 5 mph 5 mph 74% 0.00 in 0 W/m2
00:25 63.6 °F 55.2 °F 29.97 in North 5 mph 5 mph 74% 0.00 in 0 W/m2
00:30 63.5 °F 55.1 °F 29.97 in ENE 5 mph 5 mph 74% 0.00 in 0 W/m2
00:35 63.5 °F 55.4 °F 29.97 in NNW 4 mph 7 mph 75% 0.00 in 0 W/m2
00:40 63.4 °F 55.3 °F 29.97 in NW 5 mph 5 mph 75% 0.00 in 0 W/m2
00:45 63.4 °F 55.7 °F 29.97 in NNE 4 mph 10 mph 76% 0.00 in 0 W/m2
00:50 63.4 °F 55.7 °F 29.96 in NE 5 mph 5 mph 76% 0.00 in 0 W/m2
00:55 63.3 °F 55.2 °F 29.97 in East 5 mph 7 mph 75% 0.00 in 0 W/m2
01:00 63.2 °F 55.5 °F 29.96 in East 5 mph 5 mph 76% 0.00 in 0 W/m2
01:05 63.2 °F 55.5 °F 29.96 in NNE 4 mph 5 mph 76% 0.00 in 0 W/m2
01:10 63.2 °F 55.1 °F 29.96 in North 4 mph 4 mph 75% 0.00 in 0 W/m2
01:15 63.1 °F 55.4 °F 29.96 in ENE 4 mph 4 mph 76% 0.00 in 0 W/m2
01:20 63.1 °F 55.4 °F 29.96 in NW 4 mph 4 mph 76% 0.00 in 0 W/m2
01:25 63.1 °F 55.8 °F 29.97 in NE 4 mph 4 mph 77% 0.00 in 0 W/m2
01:30 63 °F 55.7 °F 29.96 in East 4 mph 4 mph 77% 0.00 in 0 W/m2
01:35 63 °F 55.7 °F 29.96 in NNE 4 mph 10 mph 77% 0.00 in 0 W/m2
01:40 62.9 °F 55.6 °F 29.96 in North 4 mph 4 mph 77% 0.00 in 0 W/m2
01:45 62.9 °F 55.9 °F 29.96 in NW 4 mph 4 mph 78% 0.00 in 0 W/m2
01:50 62.8 °F 55.5 °F 29.96 in ENE 4 mph 4 mph 77% 0.00 in 0 W/m2
01:55 62.7 °F 55.4 °F 29.96 in NNW 4 mph 8 mph 77% 0.00 in 0 W/m2
02:00 62.7 °F 55.7 °F 29.96 in NNE 5 mph 5 mph 78% 0.00 in 0 W/m2
02:05 62.7 °F 55.7 °F 29.96 in NW 4 mph 5 mph 78% 0.00 in 0 W/m2
02:10 62.7 °F 56.1 °F 29.96 in North 4 mph 9 mph 79% 0.00 in 0 W/m2
02:15 62.6 °F 56 °F 29.96 in NE 5 mph 9 mph 79% 0.00 in 0 W/m2
02:20 62.6 °F 56 °F 29.96 in East 5 mph 5 mph 79% 0.00 in 0 W/m2
02:25 62.5 °F 55.9 °F 29.96 in NNW 5 mph 5 mph 79% 0.00 in 0 W/m2
02:30 62.5 °F 56.2 °F 29.96 in North 5 mph 8 mph 80% 0.00 in 0 W/m2
02:35 62.5 °F 56.2 °F 29.96 in SSE 5 mph 8 mph 80% 0.00 in 0 W/m2
02:40 62.5 °F 56.2 °F 29.96 in NNE 4 mph 14 mph 80% 0.00 in 0 W/m2
02:45 62.5 °F 56.2 °F 29.96 in North 5 mph 14 mph 80% 0.00 in 0 W/m2
02:50 62.4 °F 56.1 °F 29.96 in ENE 5 mph 5 mph 80% 0.00 in 0 W/m2
02:55 62.4 °F 56.1 °F 29.96 in North 5 mph 8 mph 80% 0.00 in 0 W/m2
03:00 62.3 °F 56 °F 29.96 in North 4 mph 12 mph 80% 0.00 in 0 W/m2
03:05 62.3 °F 56 °F 29.96 in NW 4 mph 12 mph 80% 0.00 in 0 W/m2
03:10 62.3 °F 56.4 °F 29.96 in ENE 4 mph 8 mph 81% 0.00 in 0 W/m2
03:15 62.2 °F 56.3 °F 29.96 in ENE 4 mph 8 mph 81% 0.00 in 0 W/m2
03:20 62.2 °F 56.3 °F 29.96 in NW 5 mph 6 mph 81% 0.00 in 0 W/m2
03:25 62.2 °F 56.3 °F 29.96 in East 5 mph 6 mph 81% 0.00 in 0 W/m2
03:30 62.2 °F 56.3 °F 29.96 in NNW 4 mph 4 mph 81% 0.00 in 0 W/m2
03:35 62.2 °F 56.6 °F 29.96 in West 5 mph 5 mph 82% 0.00 in 0 W/m2
03:40 62 °F 56.4 °F 29.95 in NNE 5 mph 5 mph 82% 0.00 in 0 W/m2
03:45 61.9 °F 56 °F 29.95 in North 4 mph 5 mph 81% 0.00 in 0 W/m2
03:50 61.9 °F 56.3 °F 29.95 in NW 4 mph 8 mph 82% 0.00 in 0 W/m2
03:55 61.9 °F 56.3 °F 29.95 in ENE 5 mph 8 mph 82% 0.00 in 0 W/m2
04:00 61.9 °F 56.7 °F 29.95 in NNW 4 mph 4 mph 83% 0.00 in 0 W/m2
04:05 61.8 °F 56.2 °F 29.95 in ENE 4 mph 4 mph 82% 0.00 in 0 W/m2
04:10 61.7 °F 56.1 °F 29.95 in NNW 5 mph 5 mph 82% 0.00 in 0 W/m2
04:15 61.7 °F 56.1 °F 29.95 in NNW 4 mph 10 mph 82% 0.00 in 0 W/m2
04:20 61.7 °F 56.1 °F 29.95 in North 5 mph 6 mph 82% 0.00 in 0 W/m2
04:25 61.7 °F 56.1 °F 29.95 in NW 5 mph 10 mph 82% 0.00 in 0 W/m2
04:30 61.7 °F 56.1 °F 29.95 in NNE 5 mph 5 mph 82% 0.00 in 0 W/m2
04:35 61.7 °F 55.8 °F 29.96 in NE 5 mph 5 mph 81% 0.00 in 0 W/m2
04:40 61.8 °F 55.9 °F 29.95 in NNE 5 mph 5 mph 81% 0.00 in 0 W/m2
04:45 61.9 °F 56 °F 29.96 in North 5 mph 5 mph 81% 0.00 in 0 W/m2
04:50 61.9 °F 56 °F 29.95 in NW 5 mph 5 mph 81% 0.00 in 0 W/m2
04:55 61.9 °F 56 °F 29.95 in NW 6 mph 6 mph 81% 0.00 in 0 W/m2
05:00 61.8 °F 55.6 °F 29.95 in NW 6 mph 6 mph 80% 0.00 in 0 W/m2
05:05 61.8 °F 55.9 °F 29.95 in NNW 6 mph 6 mph 81% 0.00 in 0 W/m2
05:10 61.8 °F 55.9 °F 29.95 in NE 5 mph 5 mph 81% 0.00 in 0 W/m2
05:15 61.7 °F 55.8 °F 29.96 in North 5 mph 6 mph 81% 0.00 in 0 W/m2
05:20 61.7 °F 55.8 °F 29.95 in WSW 5 mph 5 mph 81% 0.00 in 0 W/m2
05:25 61.7 °F 55.8 °F 29.96 in NE 6 mph 6 mph 81% 0.00 in 0 W/m2
05:30 61.7 °F 55.8 °F 29.96 in North 6 mph 11 mph 81% 0.00 in 0 W/m2
05:35 61.6 °F 55.7 °F 29.96 in NW 6 mph 11 mph 81% 0.00 in 0 W/m2
05:40 61.7 °F 55.8 °F 29.96 in North 5 mph 5 mph 81% 0.00 in 0 W/m2
05:45 61.6 °F 55.7 °F 29.96 in NW 4 mph 6 mph 81% 0.00 in 0 W/m2
05:50 61.7 °F 55.5 °F 29.96 in East 5 mph 5 mph 80% 0.00 in 0 W/m2
05:55 61.7 °F 55.5 °F 29.97 in NNW 6 mph 6 mph 80% 0.00 in 0 W/m2
06:00 61.6 °F 55.4 °F 29.97 in NNE 6 mph 6 mph 80% 0.00 in 5 W/m2
06:05 61.7 °F 55.5 °F 29.97 in WNW 6 mph 6 mph 80% 0.00 in 9 W/m2
06:10 61.7 °F 55.8 °F 29.97 in North 5 mph 5 mph 81% 0.00 in 18 W/m2
06:15 61.8 °F 55.6 °F 29.97 in WNW 5 mph 5 mph 80% 0.00 in 19 W/m2
06:20 61.8 °F 55.6 °F 29.97 in NNW 6 mph 7 mph 80% 0.00 in 25 W/m2
06:25 61.9 °F 55.7 °F 29.97 in NW 6 mph 7 mph 80% 0.00 in 25 W/m2
06:30 61.9 °F 55.7 °F 29.97 in NE 6 mph 6 mph 80% 0.00 in 18 W/m2
06:35 61.9 °F 55.7 °F 29.97 in NW 6 mph 7 mph 80% 0.00 in 26 W/m2
06:40 62 °F 55.8 °F 29.98 in West 6 mph 6 mph 80% 0.00 in 21 W/m2
06:45 62 °F 56.1 °F 29.98 in North 6 mph 7 mph 81% 0.00 in 23 W/m2
06:50 62 °F 55.8 °F 29.98 in NW 6 mph 6 mph 80% 0.00 in 21 W/m2
06:55 61.9 °F 55.7 °F 29.98 in NNW 6 mph 10 mph 80% 0.00 in 26 W/m2
07:00 61.9 °F 55.7 °F 29.98 in SSW 6 mph 6 mph 80% 0.00 in 49 W/m2
07:05 61.8 °F 55.6 °F 29.98 in NE 6 mph 8 mph 80% 0.00 in 33 W/m2
07:10 61.7 °F 55.5 °F 29.99 in North 5 mph 5 mph 80% 0.00 in 28 W/m2
07:15 61.6 °F 55.4 °F 29.99 in WSW 6 mph 6 mph 80% 0.00 in 32 W/m2
07:20 61.6 °F 55.4 °F 29.99 in NE 6 mph 8 mph 80% 0.00 in 42 W/m2
07:25 61.6 °F 55.4 °F 29.99 in NNW 5 mph 8 mph 80% 0.00 in 51 W/m2
07:30 61.6 °F 55.4 °F 29.99 in ESE 6 mph 6 mph 80% 0.00 in 62 W/m2
07:35 61.6 °F 55.4 °F 29.99 in NW 6 mph 6 mph 80% 0.00 in 95 W/m2
07:40 61.6 °F 55.4 °F 29.99 in NW 5 mph 6 mph 80% 0.00 in 53 W/m2
07:45 61.6 °F 55.4 °F 29.99 in ESE 6 mph 6 mph 80% 0.00 in 206 W/m2
07:50 61.6 °F 55.4 °F 29.99 in NE 6 mph 8 mph 80% 0.00 in 229 W/m2
07:55 61.7 °F 55.5 °F 29.99 in NNE 5 mph 8 mph 80% 0.00 in 243 W/m2
08:00 61.8 °F 55.6 °F 29.99 in NW 5 mph 10 mph 80% 0.00 in 257 W/m2
08:05 61.9 °F 55.7 °F 29.99 in North 5 mph 10 mph 80% 0.00 in 269 W/m2
08:10 61.9 °F 55.3 °F 29.99 in WNW 5 mph 5 mph 79% 0.00 in 285 W/m2
08:15 61.9 °F 55.3 °F 29.99 in North 6 mph 6 mph 79% 0.00 in 295 W/m2
08:20 62 °F 55.4 °F 29.99 in North 6 mph 6 mph 79% 0.00 in 313 W/m2
08:25 62.1 °F 55.5 °F 29.99 in NE 6 mph 6 mph 79% 0.00 in 325 W/m2
08:30 62.2 °F 55.6 °F 30.00 in NW 5 mph 8 mph 79% 0.00 in 339 W/m2
08:35 62.3 °F 55.7 °F 30.00 in NNE 6 mph 8 mph 79% 0.00 in 353 W/m2
08:40 62.3 °F 55.4 °F 30.00 in North 7 mph 8 mph 78% 0.00 in 369 W/m2
08:45 62.4 °F 55.8 °F 29.99 in ESE 6 mph 8 mph 79% 0.00 in 383 W/m2
08:50 62.4 °F 55.4 °F 30.00 in NE 5 mph 8 mph 78% 0.00 in 397 W/m2
08:55 62.5 °F 55.5 °F 30.00 in ENE 5 mph 8 mph 78% 0.00 in 411 W/m2
09:00 62.5 °F 55.5 °F 30.00 in North 5 mph 5 mph 78% 0.00 in 422 W/m2
09:05 62.6 °F 55.6 °F 30.00 in ESE 5 mph 5 mph 78% 0.00 in 436 W/m2
09:10 62.8 °F 55.8 °F 30.00 in ENE 4 mph 7 mph 78% 0.00 in 450 W/m2
09:15 62.8 °F 55.5 °F 30.00 in WNW 5 mph 7 mph 77% 0.00 in 464 W/m2
09:20 62.9 °F 55.6 °F 30.00 in NNW 6 mph 6 mph 77% 0.00 in 478 W/m2
09:25 63.1 °F 55.8 °F 30.01 in NNE 5 mph 10 mph 77% 0.00 in 489 W/m2
09:30 63.2 °F 55.9 °F 30.00 in WNW 6 mph 6 mph 77% 0.00 in 501 W/m2
09:35 63.4 °F 56.1 °F 30.00 in NNW 6 mph 6 mph 77% 0.00 in 515 W/m2
09:40 63.5 °F 56.2 °F 30.00 in SW 5 mph 5 mph 77% 0.00 in 529 W/m2
09:45 63.7 °F 56 °F 30.01 in NW 4 mph 5 mph 76% 0.00 in 541 W/m2
09:50 63.8 °F 56.1 °F 30.00 in NE 4 mph 6 mph 76% 0.00 in 555 W/m2
09:55 64 °F 56.3 °F 30.00 in NNE 4 mph 6 mph 76% 0.00 in 568 W/m2
10:00 64.1 °F 56.4 °F 30.00 in NNE 4 mph 9 mph 76% 0.00 in 578 W/m2
10:05 64.3 °F 56.2 °F 30.00 in ENE 5 mph 9 mph 75% 0.00 in 591 W/m2
10:10 64.5 °F 56.4 °F 30.00 in North 4 mph 5 mph 75% 0.00 in 603 W/m2
10:15 64.6 °F 56.1 °F 30.00 in North 4 mph 5 mph 74% 0.00 in 615 W/m2
10:20 64.8 °F 55.9 °F 30.00 in NNW 4 mph 4 mph 73% 0.00 in 628 W/m2
10:25 64.9 °F 56 °F 30.00 in NNW 4 mph 4 mph 73% 0.00 in 640 W/m2
10:30 65.1 °F 56.2 °F 30.00 in NNW 4 mph 4 mph 73% 0.00 in 652 W/m2
10:35 65.2 °F 55.6 °F 30.00 in ENE 5 mph 5 mph 71% 0.00 in 661 W/m2
10:40 65.5 °F 56.6 °F 30.00 in North 5 mph 6 mph 73% 0.00 in 673 W/m2
10:45 65.5 °F 55.8 °F 30.00 in NNE 4 mph 6 mph 71% 0.00 in 686 W/m2
10:50 65.5 °F 55.5 °F 30.00 in NNE 5 mph 10 mph 70% 0.00 in 696 W/m2
10:55 65.6 °F 55.5 °F 30.00 in North 6 mph 10 mph 70% 0.00 in 703 W/m2
11:00 65.6 °F 55.5 °F 30.00 in NE 6 mph 6 mph 70% 0.00 in 715 W/m2
11:05 65.6 °F 55.9 °F 30.00 in NNE 6 mph 6 mph 71% 0.00 in 724 W/m2
11:10 65.7 °F 56 °F 30.00 in East 5 mph 6 mph 71% 0.00 in 733 W/m2
11:15 65.8 °F 55.7 °F 30.00 in NE 5 mph 6 mph 70% 0.00 in 744 W/m2
11:20 65.9 °F 56.2 °F 30.00 in NE 4 mph 7 mph 71% 0.00 in 752 W/m2
11:25 65.9 °F 55.4 °F 30.00 in North 4 mph 8 mph 69% 0.00 in 761 W/m2
11:30 66.1 °F 56 °F 30.01 in NE 5 mph 5 mph 70% 0.00 in 770 W/m2
11:35 66.1 °F 56 °F 30.00 in ESE 5 mph 5 mph 70% 0.00 in 779 W/m2
11:40 66.2 °F 56.1 °F 30.00 in SE 5 mph 5 mph 70% 0.00 in 786 W/m2
11:45 66.2 °F 56.1 °F 30.00 in NNW 4 mph 5 mph 70% 0.00 in 795 W/m2
11:50 66.4 °F 56.3 °F 30.00 in NE 4 mph 5 mph 70% 0.00 in 802 W/m2
11:55 66.5 °F 56.4 °F 30.00 in ENE 5 mph 6 mph 70% 0.00 in 810 W/m2
12:00 66.6 °F 56.5 °F 30.00 in ENE 5 mph 5 mph 70% 0.00 in 817 W/m2
12:05 66.7 °F 56.6 °F 30.00 in NNE 4 mph 5 mph 70% 0.00 in 824 W/m2
12:10 66.8 °F 56.3 °F 30.00 in ENE 5 mph 6 mph 69% 0.00 in 831 W/m2
12:15 66.7 °F 56.2 °F 30.00 in North 5 mph 6 mph 69% 0.00 in 837 W/m2
12:20 66.8 °F 56.3 °F 30.00 in ENE 5 mph 5 mph 69% 0.00 in 842 W/m2
12:25 67 °F 56.9 °F 30.01 in NW 5 mph 5 mph 70% 0.00 in 849 W/m2
12:30 67.1 °F 56.2 °F 30.01 in NNE 5 mph 5 mph 68% 0.00 in 854 W/m2
12:35 67.2 °F 56.7 °F 30.00 in SW 5 mph 5 mph 69% 0.00 in 860 W/m2
12:40 67.6 °F 57.1 °F 30.00 in NE 5 mph 8 mph 69% 0.00 in 863 W/m2
12:45 67.4 °F 56.5 °F 30.00 in NNW 5 mph 8 mph 68% 0.00 in 868 W/m2
12:50 67.4 °F 56.5 °F 30.00 in North 5 mph 5 mph 68% 0.00 in 874 W/m2
12:55 67.5 °F 56.6 °F 30.00 in SE 5 mph 5 mph 68% 0.00 in 875 W/m2
13:00 67.8 °F 56.9 °F 30.00 in NNW 5 mph 8 mph 68% 0.00 in 884 W/m2
13:05 67.9 °F 57.4 °F 29.99 in NNE 4 mph 8 mph 69% 0.00 in 889 W/m2
13:10 67.9 °F 56.9 °F 29.99 in ENE 4 mph 4 mph 68% 0.00 in 893 W/m2
13:15 68.1 °F 57.1 °F 29.99 in ENE 4 mph 4 mph 68% 0.00 in 905 W/m2
13:20 68.4 °F 56.6 °F 29.99 in NE 4 mph 5 mph 66% 0.00 in 810 W/m2
13:25 68 °F 56.6 °F 29.99 in NNE 4 mph 5 mph 67% 0.00 in 842 W/m2
13:30 68.2 °F 57.2 °F 29.99 in ESE 5 mph 7 mph 68% 0.00 in 886 W/m2
13:35 68.2 °F 56.8 °F 29.99 in ENE 4 mph 7 mph 67% 0.00 in 838 W/m2
13:40 68.3 °F 57.3 °F 29.98 in North 4 mph 7 mph 68% 0.00 in 925 W/m2
13:45 68.2 °F 57.6 °F 29.98 in NW 4 mph 7 mph 69% 0.00 in 863 W/m2
13:50 68.3 °F 56.9 °F 29.98 in NNE 4 mph 9 mph 67% 0.00 in 902 W/m2
13:55 68.8 °F 57.8 °F 29.98 in East 4 mph 9 mph 68% 0.00 in 898 W/m2
14:00 69 °F 57.6 °F 29.98 in North 4 mph 5 mph 67% 0.00 in 907 W/m2
14:05 69.5 °F 57.6 °F 29.98 in NNE 3 mph 5 mph 66% 0.00 in 888 W/m2
14:10 70 °F 58.5 °F 29.98 in NW 3 mph 6 mph 67% 0.00 in 902 W/m2
14:15 69.9 °F 58.4 °F 29.98 in NNE 3 mph 6 mph 67% 0.00 in 900 W/m2
14:20 70 °F 57.7 °F 29.98 in WSW 4 mph 4 mph 65% 0.00 in 898 W/m2
14:25 70.1 °F 58.2 °F 29.98 in NNW 3 mph 4 mph 66% 0.00 in 893 W/m2
14:30 70.2 °F 57.4 °F 29.98 in NE 3 mph 4 mph 64% 0.00 in 886 W/m2
14:35 70.2 °F 57.4 °F 29.98 in NNW 4 mph 4 mph 64% 0.00 in 884 W/m2
14:40 70 °F 57.7 °F 29.98 in North 4 mph 5 mph 65% 0.00 in 881 W/m2
14:45 69.9 °F 57.6 °F 29.98 in South 4 mph 5 mph 65% 0.00 in 875 W/m2
14:50 70.6 °F 58.7 °F 29.98 in NNE 3 mph 5 mph 66% 0.00 in 875 W/m2
14:55 70.7 °F 57.5 °F 29.98 in NNW 3 mph 5 mph 63% 0.00 in 861 W/m2
15:00 70.9 °F 58.1 °F 29.98 in ESE 3 mph 3 mph 64% 0.00 in 856 W/m2
15:05 71 °F 57.3 °F 29.98 in NE 3 mph 7 mph 62% 0.00 in 853 W/m2
15:10 71 °F 57.8 °F 29.97 in ENE 3 mph 8 mph 63% 0.00 in 805 W/m2
15:15 70.5 °F 56.9 °F 29.97 in SE 4 mph 8 mph 62% 0.00 in 752 W/m2
15:20 70.4 °F 57.6 °F 29.97 in NE 4 mph 4 mph 64% 0.00 in 821 W/m2
15:25 70.4 °F 57.6 °F 29.97 in East 4 mph 4 mph 64% 0.00 in 809 W/m2
15:30 70.5 °F 57.3 °F 29.97 in ENE 4 mph 4 mph 63% 0.00 in 824 W/m2
15:35 70.4 °F 57.2 °F 29.96 in ENE 4 mph 4 mph 63% 0.00 in 766 W/m2
15:40 70.4 °F 57.6 °F 29.96 in ENE 4 mph 4 mph 64% 0.00 in 809 W/m2
15:45 70.6 °F 57.4 °F 29.96 in NE 4 mph 6 mph 63% 0.00 in 800 W/m2
15:50 70.6 °F 57.4 °F 29.96 in ENE 3 mph 5 mph 63% 0.00 in 779 W/m2
15:55 70.6 °F 56.9 °F 29.96 in ENE 3 mph 5 mph 62% 0.00 in 782 W/m2
16:00 70.7 °F 57 °F 29.96 in East 3 mph 3 mph 62% 0.00 in 733 W/m2
16:05 70.9 °F 57.2 °F 29.96 in NNE 3 mph 3 mph 62% 0.00 in 770 W/m2
16:10 71.4 °F 58.1 °F 29.96 in NNW 3 mph 4 mph 63% 0.00 in 765 W/m2
16:15 71.3 °F 58.1 °F 29.96 in East 3 mph 4 mph 63% 0.00 in 749 W/m2
16:20 71 °F 56.9 °F 29.96 in WNW 3 mph 3 mph 61% 0.00 in 738 W/m2
16:25 70.9 °F 56.8 °F 29.96 in East 3 mph 3 mph 61% 0.00 in 735 W/m2
16:30 71 °F 56.9 °F 29.95 in NE 3 mph 3 mph 61% 0.00 in 715 W/m2
16:35 70.8 °F 56.2 °F 29.95 in East 3 mph 4 mph 60% 0.00 in 689 W/m2
16:40 70.6 °F 56 °F 29.95 in ESE 3 mph 3 mph 60% 0.00 in 712 W/m2
16:45 70.3 °F 55.8 °F 29.95 in NE 4 mph 5 mph 60% 0.00 in 459 W/m2
16:50 70.2 °F 55.7 °F 29.95 in North 4 mph 5 mph 60% 0.00 in 705 W/m2
16:55 70 °F 55.9 °F 29.95 in East 4 mph 5 mph 61% 0.00 in 543 W/m2
17:00 70 °F 56.4 °F 29.95 in ENE 4 mph 4 mph 62% 0.00 in 633 W/m2
17:05 70 °F 56.4 °F 29.95 in North 3 mph 7 mph 62% 0.00 in 621 W/m2
17:10 70 °F 56.4 °F 29.95 in ENE 3 mph 4 mph 62% 0.00 in 610 W/m2
17:15 70.2 °F 57 °F 29.95 in NNE 3 mph 6 mph 63% 0.00 in 617 W/m2
17:20 70.1 °F 56.5 °F 29.95 in NE 3 mph 3 mph 62% 0.00 in 591 W/m2
17:25 70.1 °F 56.5 °F 29.95 in ENE 3 mph 4 mph 62% 0.00 in 512 W/m2
17:30 70 °F 55.5 °F 29.94 in North 3 mph 3 mph 60% 0.00 in 566 W/m2
17:35 70 °F 55.5 °F 29.94 in ESE 4 mph 4 mph 60% 0.00 in 429 W/m2
17:40 70 °F 55.5 °F 29.94 in NNW 3 mph 3 mph 60% 0.00 in 534 W/m2
17:45 69.9 °F 54.9 °F 29.94 in NE 3 mph 4 mph 59% 0.00 in 536 W/m2
17:50 70 °F 55.9 °F 29.94 in North 3 mph 3 mph 61% 0.00 in 501 W/m2
17:55 70 °F 55.9 °F 29.94 in North 3 mph 3 mph 61% 0.00 in 480 W/m2
18:00 69.9 °F 55.8 °F 29.94 in NNE 4 mph 6 mph 61% 0.00 in 450 W/m2
18:05 69.9 °F 55.8 °F 29.94 in NE 3 mph 6 mph 61% 0.00 in 475 W/m2
18:10 69.8 °F 55.7 °F 29.94 in East 3 mph 7 mph 61% 0.00 in 420 W/m2
18:15 69.8 °F 56.2 °F 29.94 in East 3 mph 7 mph 62% 0.00 in 462 W/m2
18:20 69.8 °F 56.2 °F 29.94 in North 3 mph 3 mph 62% 0.00 in 473 W/m2
18:25 69.8 °F 56.2 °F 29.94 in ENE 3 mph 3 mph 62% 0.00 in 420 W/m2
18:30 69.8 °F 55.7 °F 29.94 in ENE 2 mph 3 mph 61% 0.00 in 186 W/m2
18:35 69.7 °F 55.6 °F 29.94 in West 3 mph 3 mph 61% 0.00 in 246 W/m2
18:40 69.5 °F 55.5 °F 29.94 in NE 3 mph 3 mph 61% 0.00 in 353 W/m2
18:45 69.4 °F 55.4 °F 29.94 in NNE 3 mph 3 mph 61% 0.00 in 193 W/m2
18:50 69.2 °F 55.6 °F 29.94 in ENE 3 mph 6 mph 62% 0.00 in 241 W/m2
18:55 69.1 °F 55.1 °F 29.94 in East 3 mph 6 mph 61% 0.00 in 130 W/m2
19:00 68.8 °F 55.2 °F 29.95 in NE 3 mph 3 mph 62% 0.00 in 121 W/m2
19:05 68.7 °F 55.6 °F 29.95 in ENE 3 mph 3 mph 63% 0.00 in 176 W/m2
19:10 68.6 °F 55.1 °F 29.95 in ENE 3 mph 4 mph 62% 0.00 in 100 W/m2
19:15 68.5 °F 55 °F 29.95 in ENE 3 mph 4 mph 62% 0.00 in 93 W/m2
19:20 68.4 °F 55.3 °F 29.95 in ENE 3 mph 3 mph 63% 0.00 in 104 W/m2
19:25 68.3 °F 55.2 °F 29.95 in NE 3 mph 4 mph 63% 0.00 in 102 W/m2
19:30 68.2 °F 55.1 °F 29.95 in NE 3 mph 3 mph 63% 0.00 in 121 W/m2
19:35 68.1 °F 55.5 °F 29.95 in NW 3 mph 3 mph 64% 0.00 in 90 W/m2
19:40 68 °F 55.4 °F 29.95 in NNE 3 mph 5 mph 64% 0.00 in 83 W/m2
19:45 67.9 °F 55.3 °F 29.95 in ENE 3 mph 5 mph 64% 0.00 in 72 W/m2
19:50 67.9 °F 55.3 °F 29.95 in NE 3 mph 3 mph 64% 0.00 in 81 W/m2
19:55 67.8 °F 55.6 °F 29.95 in East 3 mph 3 mph 65% 0.00 in 79 W/m2
20:00 67.8 °F 55.2 °F 29.95 in NE 3 mph 3 mph 64% 0.00 in 81 W/m2
20:05 67.8 °F 54.7 °F 29.94 in NNE 3 mph 3 mph 63% 0.00 in 70 W/m2
20:10 67.8 °F 55.2 °F 29.94 in North 4 mph 4 mph 64% 0.00 in 63 W/m2
20:15 67.9 °F 55.3 °F 29.95 in ENE 3 mph 4 mph 64% 0.00 in 56 W/m2
20:20 67.9 °F 55.7 °F 29.95 in ENE 3 mph 4 mph 65% 0.00 in 49 W/m2
20:25 67.9 °F 55.7 °F 29.95 in ENE 3 mph 9 mph 65% 0.00 in 44 W/m2
20:30 68 °F 55.4 °F 29.95 in NE 3 mph 3 mph 64% 0.00 in 39 W/m2
20:35 67.9 °F 55.3 °F 29.95 in NNE 3 mph 3 mph 64% 0.00 in 35 W/m2
20:40 67.9 °F 55.3 °F 29.95 in NW 3 mph 3 mph 64% 0.00 in 32 W/m2
20:45 67.9 °F 54.8 °F 29.95 in ESE 3 mph 3 mph 63% 0.00 in 28 W/m2
20:50 67.9 °F 54.8 °F 29.95 in NE 3 mph 3 mph 63% 0.00 in 25 W/m2
20:55 67.9 °F 54.8 °F 29.94 in ENE 3 mph 4 mph 63% 0.00 in 19 W/m2
21:00 67.9 °F 54.8 °F 29.94 in NNE 3 mph 5 mph 63% 0.00 in 14 W/m2
21:05 67.8 °F 54.3 °F 29.94 in NE 3 mph 5 mph 62% 0.00 in 11 W/m2
21:10 67.8 °F 54.7 °F 29.94 in NNW 3 mph 3 mph 63% 0.00 in 7 W/m2
21:15 67.7 °F 55.1 °F 29.94 in NE 3 mph 3 mph 64% 0.00 in 5 W/m2
21:20 67.7 °F 55.1 °F 29.95 in NNE 3 mph 8 mph 64% 0.00 in 0 W/m2
21:25 67.7 °F 55.1 °F 29.95 in ENE 4 mph 8 mph 64% 0.00 in 0 W/m2
21:30 67.7 °F 55.1 °F 29.95 in North 4 mph 4 mph 64% 0.00 in 0 W/m2
21:35 67.6 °F 55 °F 29.94 in NE 3 mph 4 mph 64% 0.00 in 0 W/m2
21:40 67.6 °F 55 °F 29.95 in North 2 mph 4 mph 64% 0.00 in 0 W/m2
21:45 67.5 °F 55.3 °F 29.95 in NNE 3 mph 4 mph 65% 0.00 in 0 W/m2
21:50 67.5 °F 55.3 °F 29.95 in SE 3 mph 3 mph 65% 0.00 in 0 W/m2
21:55 67.5 °F 56.2 °F 29.95 in WNW 3 mph 3 mph 67% 0.00 in 0 W/m2
22:00 67.4 °F 56.5 °F 29.95 in East 3 mph 3 mph 68% 0.00 in 0 W/m2
22:05 67.4 °F 56.1 °F 29.95 in North 3 mph 3 mph 67% 0.00 in 0 W/m2
22:10 67.3 °F 56 °F 29.95 in ENE 3 mph 3 mph 67% 0.00 in 0 W/m2
22:15 67.2 °F 55.9 °F 29.95 in ENE 3 mph 3 mph 67% 0.00 in 0 W/m2
22:20 67.1 °F 56.2 °F 29.95 in SE 3 mph 3 mph 68% 0.00 in 0 W/m2
22:25 67 °F 56.5 °F 29.95 in NNE 2 mph 3 mph 69% 0.00 in 0 W/m2
22:30 67 °F 56.1 °F 29.95 in NNW 2 mph 7 mph 68% 0.00 in 0 W/m2
22:35 66.9 °F 56.4 °F 29.95 in NE 2 mph 7 mph 69% 0.00 in 0 W/m2
22:40 66.8 °F 56.3 °F 29.95 in East 2 mph 2 mph 69% 0.00 in 0 W/m2
22:45 66.8 °F 56.3 °F 29.95 in SSW 2 mph 3 mph 69% 0.00 in 0 W/m2
22:50 66.7 °F 56.6 °F 29.95 in ESE 2 mph 2 mph 70% 0.00 in 0 W/m2
22:55 66.6 °F 56.5 °F 29.95 in North 2 mph 2 mph 70% 0.00 in 0 W/m2
23:00 66.5 °F 56 °F 29.95 in ENE 2 mph 3 mph 69% 0.00 in 0 W/m2
23:05 66.4 °F 56.3 °F 29.95 in East 3 mph 3 mph 70% 0.00 in 0 W/m2
23:10 66.4 °F 56.3 °F 29.95 in NE 2 mph 2 mph 70% 0.00 in 0 W/m2
23:15 66.4 °F 56.7 °F 29.95 in NE 2 mph 2 mph 71% 0.00 in 0 W/m2
23:20 66.3 °F 56.6 °F 29.94 in ENE 1 mph 1 mph 71% 0.00 in 0 W/m2
23:25 66.2 °F 56.9 °F 29.94 in NE 1 mph 3 mph 72% 0.00 in 0 W/m2
23:30 66.1 °F 56.8 °F 29.94 in NNE 2 mph 2 mph 72% 0.00 in 0 W/m2
23:35 66 °F 57.1 °F 29.94 in WSW 2 mph 2 mph 73% 0.00 in 0 W/m2
23:40 65.9 °F 57.4 °F 29.94 in NNE 2 mph 2 mph 74% 0.00 in 0 W/m2
23:45 65.8 °F 57.3 °F 29.94 in NW 2 mph 2 mph 74% 0.00 in 0 W/m2
23:50 65.8 °F 57.3 °F 29.94 in WNW 2 mph 2 mph 74% 0.00 in 0 W/m2
23:55 65.7 °F 57.2 °F 29.94 in NW 1 mph 2 mph 74% 0.00 in 0 W/m2
Sand Point, Michigan, USA
Compliments of Weather Underground - 2 mb